Temperature
20 19 18 20 20 19 19 18 18 19 21 19 18 18 19 20 21 21 21 21 21 20 20 20 19 18 16 15 13 13 12 12 11 11 10 10 11 10 9 9 9 9 9 9
19 19 20 20 19 19 18 18 18 19 20 19 17 18 19 21 21 21 20 20 19 19 19 19 19 17 16 15 14 13 12 12 12 12 12 12 11 11 10 9 9 9 9 9
19 20 20 19 19 18 18 18 18 17 17 18 18 18 21 21 22 21 20 19 18 18 18 18 18 17 16 15 14 13 12 12 12 12 11 10 9 9 9 9 10 10 9 9
19 20 19 18 18 19 18 18 17 17 16 16 18 15 18 21 19 19 19 18 18 17 17 17 17 16 16 15 14 13 12 12 11 11 10 10 10 11 12 11 11 10 9 9
19 20 18 18 18 18 18 17 16 16 15 15 17 17 18 20 19 18 18 18 18 17 17 17 16 16 15 15 14 13 12 12 11 10 10 10 10 11 10 9 9 9 8 8
18 19 18 18 18 17 17 16 16 16 15 15 18 18 17 20 20 19 18 18 18 17 17 16 16 16 15 15 14 13 13 12 11 10 10 9 9 9 8 8 8 8 7 7
20 18 18 17 17 17 16 16 16 16 15 17 18 17 17 20 20 19 18 18 17 16 16 15 15 15 15 14 14 14 13 12 11 10 9 9 9 8 8 8 7 7 7 7
19 19 17 17 17 16 18 17 16 16 16 17 18 17 18 21 20 20 19 18 17 16 15 15 14 14 14 14 13 13 13 12 11 11 10 10 9 8 8 8 7 7 7 7
19 18 17 17 17 17 17 17 17 16 16 15 17 19 20 20 19 19 19 17 16 16 15 14 14 14 13 13 13 13 13 12 12 11 11 10 9 9 9 8 7 7 7 6
18 17 18 15 15 15 16 15 15 15 15 15 17 18 18 20 19 18 17 17 16 15 14 14 13 13 13 13 13 12 12 12 12 11 11 10 10 9 9 8 8 8 7 6
18 17 17 15 15 16 14 15 15 15 15 14 14 16 19 19 19 18 16 16 15 14 14 13 13 13 13 12 12 12 12 12 11 11 11 10 10 9 9 8 8 8 7 7
17 16 16 17 17 16 17 17 16 14 15 15 14 15 20 20 18 17 16 15 14 14 13 13 13 12 12 12 12 11 11 11 11 10 10 10 10 9 9 9 8 8 8 7
17 15 15 16 15 15 15 16 16 15 14 13 12 14 19 18 17 17 16 15 14 14 13 13 12 12 11 11 11 11 10 10 10 9 9 9 9 9 8 8 8 8 7 7
15 15 15 15 15 16 16 16 16 14 13 13 13 15 16 17 16 15 15 14 14 13 13 12 12 11 11 10 10 10 10 9 9 9 8 8 8 8 8 7 7 7 7 6
14 13 14 15 15 15 15 15 15 14 14 13 14 15 15 15 14 14 14 13 13 13 12 12 11 10 10 10 9 9 9 8 8 8 8 7 7 7 7 7 6 6 6 6
13 13 13 13 14 14 14 14 14 14 14 14 14 14 15 15 14 13 13 12 12 12 12 11 10 10 9 9 8 8 8 7 7 7 7 7 6 6 6 6 6 5 5 5
13 12 12 11 13 13 12 14 14 14 15 15 14 14 14 13 12 12 12 12 12 11 10 10 9 9 8 8 7 7 7 7 6 6 6 6 6 5 5 5 5 5 4 4
13 12 11 10 11 9 12 16 16 15 14 14 14 13 12 12 12 12 12 12 11 10 9 9 8 8 7 7 7 6 6 6 6 6 5 5 4 4 4 3 3 3 3 2
11 11 10 9 9 10 13 14 14 14 13 14 13 12 12 12 11 11 11 10 9 9 8 8 7 7 7 6 6 5 5 5 5 5 4 4 3 3 2 2 2 2 1 1
9 10 9 9 8 8 13 12 13 12 11 12 12 11 11 10 7 8 10 9 8 8 7 7 7 6 6 6 5 5 5 4 4 3 3 2 2 2 1 1 1 1 0 0
8 8 7 8 8 9 13 12 12 11 11 12 12 11 10 9 8 9 8 8 7 7 6 6 6 5 5 5 4 4 4 3 3 2 2 2 1 1 1 0 0 -0 -0 -1
9 8 8 8 8 8 12 12 11 11 12 12 11 10 9 8 8 8 7 7 6 6 6 5 5 5 5 4 4 3 3 2 2 1 1 1 0 0 -0 -1 -1 -1 -1 -1
11 11 10 10 10 13 13 13 12 12 11 10 9 8 8 7 7 7 6 6 5 5 5 4 4 4 4 3 3 2 2 1 1 0 0 -0 -0 -1 -1 -1 -1 -2 -2 -2
11 12 11 10 11 12 13 12 11 10 9 8 8 7 7 6 6 5 5 5 4 4 4 4 3 3 3 2 2 1 1 0 -0 -1 -1 -1 -1 -1 -1 -2 -2 -2 -2 -3
10 10 9 9 10 11 11 10 9 8 7 7 6 6 5 5 5 4 4 4 3 3 3 3 2 2 2 1 1 0 -0 -1 -1 -1 -1 -1 -2 -2 -2 -2 -3 -3 -3 -3
8 9 8 8 9 8 8 8 7 6 6 5 5 5 4 4 4 4 3 3 3 2 2 2 2 1 1 0 -0 -0 -1 -1 -2 -2 -2 -2 -2 -3 -3 -3 -3 -3 -3 -3
Wind_Speed
7 5 7 7 4 7 9 10 14 14 9 5 11 17 20 16 7 6 7 6 5 4 4 5 14 14 14 14 14 15 16 15 13 12 13 13 13 10 9 11 19 22 22 24
7 9 7 4 5 5 8 11 13 12 7 10 13 16 17 6 2 4 6 8 9 8 6 4 7 11 12 13 13 14 15 15 14 13 11 8 8 8 8 8 14 21 23 23
11 5 1 4 7 9 10 10 9 9 11 9 8 10 3 6 8 9 9 9 8 8 8 6 4 8 9 11 13 12 14 15 15 12 7 6 6 6 9 10 12 15 22 23
7 1 2 4 8 8 9 4 6 8 8 6 7 6 7 4 9 9 9 9 9 8 7 5 3 3 8 10 10 11 12 13 13 13 11 12 13 15 15 11 10 11 18 20
6 2 2 6 4 4 5 6 7 8 7 6 6 5 8 3 7 8 8 8 8 8 7 5 3 1 4 7 8 10 10 11 12 13 14 13 15 13 9 9 11 13 13 17
12 2 1 2 2 2 6 8 11 6 3 5 4 4 6 1 6 7 7 8 8 7 8 7 4 2 0 3 5 7 9 10 10 13 14 15 16 13 11 11 12 11 11 12
7 8 5 1 4 6 5 5 4 1 4 4 3 3 7 0 7 7 7 7 7 8 7 7 7 4 2 1 4 6 8 9 10 11 13 14 15 14 15 13 12 12 11 12
5 4 8 6 2 3 4 2 4 4 5 6 3 6 6 1 6 8 7 7 7 7 6 7 7 6 4 1 2 4 7 8 9 10 12 12 13 12 12 13 12 13 12 12
4 2 4 3 2 2 4 2 2 3 7 6 6 6 5 2 5 6 5 6 6 6 7 7 6 6 5 4 1 2 5 7 8 10 10 11 12 12 13 12 12 12 11 10
5 5 4 5 2 4 4 6 3 3 4 5 7 7 3 1 2 3 5 6 6 6 6 6 5 5 4 3 2 1 3 5 6 8 9 9 10 12 12 12 14 13 13 12
3 5 2 5 7 8 6 4 5 5 5 4 5 6 4 6 4 5 6 6 6 7 6 5 4 4 4 3 3 2 2 3 4 5 6 7 9 9 10 11 13 13 13 13
2 3 6 7 1 3 2 4 5 5 7 6 7 8 7 3 5 6 6 5 6 5 3 3 4 5 5 5 5 4 3 3 3 4 5 7 8 8 9 11 12 11 12 12
1 3 5 3 2 2 2 4 6 6 5 6 7 9 5 7 7 6 5 4 4 4 4 4 5 6 6 7 7 6 4 4 4 4 5 7 8 8 10 10 10 11 11 12
2 4 6 8 9 7 8 8 8 8 8 10 13 16 15 14 9 6 6 6 5 4 4 4 5 6 7 7 7 6 6 5 5 5 6 8 8 9 10 10 10 10 10 11
3 5 9 12 13 13 14 15 13 14 14 16 19 20 18 10 5 6 7 7 6 7 6 5 6 7 8 8 8 7 7 6 6 7 8 9 9 9 10 10 10 10 10 12
4 5 8 12 12 13 18 19 18 18 16 16 18 18 7 3 5 7 8 8 8 7 6 7 9 9 8 8 8 8 7 7 7 8 10 10 10 10 10 11 11 11 11 11
6 5 5 6 7 11 12 13 12 9 8 8 10 7 4 5 7 8 9 10 8 6 8 9 9 8 8 8 8 8 8 7 8 10 11 11 11 11 11 12 11 12 12 11
6 5 4 5 6 9 10 6 3 4 6 7 7 4 5 4 5 7 9 7 8 10 10 9 9 8 8 8 9 8 7 8 10 11 12 12 11 12 11 11 12 12 11 11
4 6 5 3 6 11 10 5 3 3 6 4 3 5 6 7 8 7 7 9 9 10 9 9 8 8 8 9 8 7 9 10 11 12 13 12 10 11 11 12 12 11 11 11
1 3 5 5 5 7 6 2 3 3 4 5 6 7 8 9 9 7 8 10 10 10 9 9 8 8 9 9 8 9 11 12 12 13 11 10 10 11 12 13 12 11 10 11
4 4 6 7 6 9 4 4 1 2 3 5 6 7 8 7 7 9 11 10 9 9 9 9 8 8 8 9 10 12 12 12 12 11 11 11 11 12 13 12 11 11 11 11
7 6 7 6 7 8 2 2 1 4 6 7 8 8 9 9 10 11 11 10 9 9 8 8 8 9 9 10 11 13 14 13 12 11 12 12 12 12 11 12 12 11 11 11
7 6 4 6 7 4 2 4 6 7 8 8 9 9 10 11 11 11 10 9 8 8 8 7 8 10 11 10 10 15 16 13 12 12 12 12 12 12 11 12 13 11 10 10
5 6 6 6 7 8 9 9 9 9 9 10 10 10 10 11 11 10 9 8 8 7 8 8 10 12 14 13 13 14 14 13 13 13 13 12 13 13 12 10 9 10 10 10
6 6 6 10 10 11 7 9 11 12 11 11 11 10 10 10 10 9 8 8 7 8 8 9 10 13 16 15 13 13 13 13 13 13 13 12 12 13 12 11 10 12 11 12
7 9 9 11 9 9 10 10 11 11 11 10 10 10 9 9 9 9 7 7 8 10 10 11 12 13 15 15 15 14 12 12 13 12 12 11 11 11 11 12 13 15 17 23
Wind_Direction
220 233 256 278 325 332 327 305 296 293 306 331 288 289 295 301 313 336 341 340 334 303 288 191 180 178 176 180 184 184 187 189 189 194 198 202 208 207 204 201 200 199 199 199
254 247 267 341 357 310 287 285 287 295 339 323 287 289 286 277 53 44 29 25 19 12 7 41 141 160 172 180 187 188 190 191 195 200 201 201 201 207 210 207 207 203 202 201
262 259 80 327 298 281 276 280 303 322 326 280 286 304 310 106 85 74 63 55 48 38 28 28 105 158 172 184 190 195 193 193 195 193 186 191 198 206 212 213 213 209 206 205
277 267 45 284 275 281 287 350 336 318 321 308 327 305 292 128 92 76 64 56 51 45 47 41 48 163 187 196 192 194 194 195 193 190 197 198 207 216 218 214 213 211 212 211
270 132 223 270 303 350 299 335 285 281 289 286 251 237 279 138 94 87 77 68 63 50 50 46 44 216 207 195 190 193 196 200 195 196 202 209 219 225 222 216 216 215 215 216
251 220 193 306 14 247 298 291 263 226 266 264 212 210 285 57 99 95 81 69 61 48 42 35 34 32 245 186 185 188 199 209 203 203 207 212 222 223 223 222 222 220 218 217
245 191 160 171 271 197 240 301 321 250 224 231 119 242 256 258 107 104 94 74 60 51 43 30 24 13 358 210 198 195 203 216 213 211 214 218 222 223 228 229 228 225 225 222
287 190 162 184 267 345 310 320 317 305 301 321 289 245 257 98 125 128 121 99 71 56 48 39 27 15 8 8 199 201 211 221 219 219 222 224 224 226 233 233 232 233 232 227
310 50 110 108 73 273 283 229 61 320 285 268 252 248 260 152 134 136 120 92 73 61 54 43 32 26 19 19 5 219 221 225 223 223 225 227 228 229 233 233 234 239 240 232
321 303 176 140 184 224 285 326 304 246 274 284 276 270 256 44 21 63 58 59 61 61 50 38 25 15 12 15 355 265 229 233 231 226 226 232 230 231 233 233 236 237 238 234
287 277 235 175 205 196 178 206 225 257 272 276 286 272 340 342 25 50 45 52 60 56 46 29 8 358 2 0 345 318 268 251 249 244 241 242 241 238 236 237 239 239 238 235
228 297 277 257 77 73 150 244 242 248 262 266 283 277 293 327 69 59 52 54 72 66 40 13 356 353 353 345 332 323 305 288 270 259 256 254 252 247 244 245 244 240 239 237
57 259 284 262 75 48 217 235 242 259 278 263 263 268 297 344 360 36 56 50 57 54 26 1 353 344 339 333 327 323 326 322 305 287 276 272 268 261 255 254 251 246 243 242
3 255 246 266 290 310 284 262 244 240 253 259 250 271 294 309 331 12 32 25 16 0 346 345 339 330 327 322 320 325 329 326 323 311 295 285 279 273 269 265 261 256 249 246
221 256 262 271 284 291 287 281 272 262 259 265 274 280 290 310 359 21 13 3 348 326 324 337 337 325 320 320 322 326 323 324 324 312 300 290 286 283 280 277 271 265 258 253
214 264 280 275 278 282 279 272 266 265 261 262 272 278 296 10 37 12 356 336 310 305 327 338 327 319 318 319 318 319 314 309 312 305 295 292 291 288 283 280 277 272 266 259
207 225 278 276 296 305 276 263 255 243 242 258 274 292 13 21 21 358 328 302 300 328 336 325 319 318 316 313 312 308 298 304 307 296 290 288 285 282 279 279 278 273 269 264
244 254 267 285 309 253 249 285 281 279 287 298 297 334 32 17 348 316 301 323 343 337 327 322 319 315 309 305 303 298 303 306 299 292 288 284 279 277 277 275 274 272 269 265
251 223 238 253 265 276 274 289 332 317 291 305 333 11 1 339 327 311 332 353 334 325 321 317 313 310 308 306 308 316 311 303 296 290 285 281 278 279 280 278 277 275 273 270
353 211 213 222 235 254 278 78 40 10 294 37 28 356 339 343 324 306 333 330 322 321 317 313 311 310 309 310 323 318 304 297 291 287 285 288 290 288 285 283 282 279 274 273
156 185 216 235 245 262 282 126 71 267 300 359 348 335 333 318 292 305 321 320 315 310 310 312 312 308 306 315 316 302 295 291 290 293 297 296 292 288 287 287 284 282 279 277
178 193 202 202 220 254 148 123 247 295 331 336 340 338 327 313 310 313 313 313 313 313 313 315 313 309 308 307 304 300 297 296 297 298 297 294 292 292 293 290 288 284 282 281
216 223 221 205 224 277 59 328 325 343 343 347 342 333 326 316 312 312 312 313 313 313 313 316 315 308 303 301 300 298 298 300 301 300 298 297 296 294 292 292 293 292 287 283
249 245 253 276 283 312 322 328 348 357 347 338 334 329 324 314 313 315 314 311 311 312 314 313 309 304 302 300 294 291 297 302 302 300 299 297 298 297 294 291 290 289 287 284
286 315 294 280 289 300 315 344 347 343 341 335 331 325 319 315 311 309 308 309 312 310 304 303 299 296 297 298 297 298 299 301 300 298 297 298 295 294 295 290 287 286 276 277
250 263 269 280 309 318 322 338 342 337 331 326 322 318 315 309 303 306 306 305 302 300 298 298 295 293 297 300 299 299 298 299 300 301 299 298 296 296 295 295 294 287 285 291
Height
1523 1526 1526 1519 1517 1518 1519 1520 1519 1510 1500 1501 1500 1493 1482 1477 1474 1473 1471 1470 1470 1470 1471 1472 1473 1476 1480 1483 1486 1488 1489 1491 1494 1495 1496 1497 1498 1501 1502 1503 1505 1506 1508 1510
1523 1523 1518 1515 1516 1518 1519 1520 1516 1506 1498 1501 1497 1490 1478 1473 1473 1473 1472 1471 1471 1470 1470 1471 1472 1474 1477 1479 1481 1483 1484 1485 1487 1488 1490 1492 1494 1495 1496 1498 1498 1499 1499 1501
1521 1515 1514 1515 1517 1518 1516 1516 1513 1511 1505 1497 1496 1492 1476 1473 1472 1474 1474 1474 1473 1472 1472 1472 1473 1474 1475 1476 1477 1478 1479 1480 1481 1483 1486 1487 1488 1488 1488 1488 1488 1490 1491 1492
1515 1511 1514 1516 1516 1514 1517 1510 1512 1512 1515 1512 1504 1513 1486 1474 1475 1475 1476 1476 1475 1475 1474 1474 1474 1474 1473 1473 1473 1474 1475 1476 1476 1478 1479 1479 1478 1477 1477 1480 1481 1483 1484 1484
1514 1510 1513 1516 1513 1513 1511 1509 1510 1512 1515 1516 1503 1507 1492 1474 1478 1478 1477 1477 1477 1476 1475 1475 1474 1473 1472 1471 1470 1470 1471 1471 1472 1472 1472 1473 1472 1472 1474 1475 1475 1474 1475 1475
1510 1509 1512 1512 1512 1513 1512 1510 1506 1509 1514 1519 1497 1501 1496 1478 1476 1477 1477 1478 1478 1478 1476 1475 1474 1472 1471 1469 1468 1467 1467 1466 1467 1467 1467 1467 1466 1467 1467 1467 1467 1467 1466 1466
1503 1508 1510 1512 1513 1511 1513 1516 1517 1517 1523 1511 1495 1498 1493 1473 1472 1474 1477 1478 1478 1477 1476 1475 1473 1471 1469 1467 1466 1464 1463 1463 1463 1462 1462 1461 1461 1461 1461 1460 1460 1460 1458 1457
1510 1510 1509 1510 1511 1514 1510 1515 1524 1528 1520 1509 1495 1498 1483 1469 1470 1472 1475 1477 1477 1476 1475 1474 1473 1471 1469 1467 1464 1463 1461 1460 1459 1458 1457 1457 1456 1455 1454 1453 1453 1452 1450 1449
1509 1509 1508 1507 1508 1511 1510 1510 1510 1519 1516 1516 1501 1484 1472 1467 1469 1472 1473 1475 1475 1475 1474 1473 1472 1471 1468 1466 1464 1462 1460 1458 1457 1455 1454 1452 1451 1450 1448 1447 1446 1444 1443 1443
1508 1512 1506 1509 1510 1511 1511 1512 1515 1519 1522 1520 1500 1489 1483 1472 1471 1471 1472 1473 1473 1473 1473 1472 1472 1470 1468 1466 1464 1461 1459 1457 1455 1452 1450 1448 1446 1444 1442 1440 1437 1435 1434 1434
1508 1513 1509 1510 1510 1506 1514 1513 1513 1514 1511 1519 1516 1499 1471 1470 1468 1470 1472 1472 1472 1472 1472 1472 1471 1470 1468 1466 1463 1460 1458 1455 1452 1449 1446 1444 1441 1438 1435 1433 1430 1428 1425 1424
1508 1511 1512 1503 1498 1498 1500 1503 1507 1517 1512 1506 1510 1497 1468 1466 1467 1469 1471 1471 1471 1471 1471 1471 1470 1468 1466 1464 1461 1458 1455 1452 1449 1446 1442 1439 1436 1432 1429 1426 1423 1420 1417 1415
1508 1514 1517 1507 1509 1505 1503 1501 1502 1505 1509 1511 1514 1497 1467 1466 1467 1469 1470 1470 1470 1470 1470 1469 1467 1466 1464 1461 1459 1456 1452 1449 1445 1441 1438 1434 1430 1426 1423 1419 1415 1412 1408 1405
1509 1511 1515 1515 1506 1502 1501 1499 1498 1503 1508 1504 1496 1484 1473 1470 1469 1469 1469 1469 1469 1469 1468 1466 1465 1463 1461 1458 1455 1451 1448 1444 1440 1436 1432 1428 1424 1420 1415 1411 1407 1403 1400 1396
1510 1512 1507 1503 1499 1497 1496 1494 1493 1495 1493 1494 1484 1479 1472 1470 1469 1469 1469 1468 1467 1466 1465 1463 1461 1459 1457 1454 1450 1447 1443 1439 1435 1430 1426 1421 1417 1412 1407 1403 1399 1395 1391 1387
1508 1510 1506 1504 1498 1495 1492 1486 1484 1483 1481 1480 1477 1473 1468 1467 1467 1468 1468 1467 1466 1464 1462 1460 1458 1455 1452 1449 1445 1441 1437 1433 1429 1424 1419 1414 1409 1404 1399 1394 1390 1385 1381 1378
1505 1508 1508 1507 1498 1497 1493 1477 1474 1473 1470 1472 1474 1470 1466 1466 1467 1468 1467 1466 1463 1461 1459 1457 1454 1451 1447 1444 1440 1435 1431 1427 1422 1417 1411 1406 1400 1395 1390 1386 1381 1376 1372 1368
1502 1504 1508 1509 1505 1512 1484 1467 1466 1467 1467 1467 1467 1466 1466 1467 1467 1467 1466 1463 1461 1458 1456 1453 1449 1446 1442 1438 1434 1430 1425 1420 1415 1409 1403 1398 1393 1387 1382 1377 1372 1368 1363 1359
1497 1502 1508 1510 1508 1494 1476 1468 1467 1468 1468 1465 1465 1465 1466 1465 1464 1464 1464 1461 1458 1455 1452 1448 1445 1441 1437 1433 1429 1424 1419 1413 1407 1402 1396 1391 1386 1380 1375 1369 1364 1360 1355 1350
1498 1499 1506 1506 1508 1503 1476 1471 1468 1471 1473 1468 1466 1467 1466 1464 1466 1462 1460 1458 1454 1451 1448 1444 1440 1436 1432 1428 1423 1417 1411 1406 1400 1395 1390 1385 1379 1373 1367 1362 1357 1352 1347 1342
1500 1503 1506 1505 1503 1489 1470 1470 1470 1478 1475 1469 1467 1466 1465 1464 1463 1458 1455 1452 1450 1446 1442 1439 1435 1431 1427 1423 1417 1410 1404 1399 1393 1388 1382 1377 1372 1366 1360 1354 1349 1344 1338 1333
1493 1497 1498 1498 1499 1491 1470 1470 1473 1473 1468 1466 1464 1463 1462 1459 1456 1453 1450 1447 1444 1440 1437 1434 1430 1426 1422 1417 1411 1403 1397 1392 1387 1381 1375 1369 1363 1358 1353 1347 1341 1336 1331 1325
1481 1480 1479 1480 1480 1470 1468 1469 1469 1468 1466 1464 1463 1461 1458 1455 1451 1448 1445 1442 1439 1436 1433 1429 1425 1420 1415 1410 1405 1397 1390 1385 1379 1373 1367 1361 1355 1350 1345 1339 1333 1328 1323 1318
1475 1472 1474 1474 1469 1467 1467 1467 1467 1466 1464 1462 1460 1457 1454 1451 1447 1444 1441 1438 1435 1431 1428 1424 1419 1413 1407 1402 1397 1391 1384 1378 1372 1365 1359 1353 1347 1342 1337 1332 1327 1321 1316 1310
1475 1473 1473 1471 1469 1466 1466 1466 1464 1462 1460 1457 1455 1453 1450 1447 1443 1440 1437 1434 1430 1427 1423 1418 1413 1406 1400 1394 1389 1384 1378 1371 1364 1358 1352 1346 1340 1334 1328 1323 1319 1314 1309 1305
1473 1474 1474 1470 1468 1468 1465 1464 1462 1459 1457 1454 1451 1448 1446 1443 1439 1436 1433 1429 1426 1421 1417 1411 1406 1400 1393 1387 1381 1376 1371 1365 1358 1350 1344 1338 1332 1327 1321 1315 1310 1306 1302 1297